Overview Statistics Trail Chart Weather Telemetry Raw packets
 

This is the latest recevied weather packets stored in our database for station/object EA1HTW-13. If no packets are shown the sender has not sent any weather packets the latest 10 day(s).

<< 13 14 15 16 17 18 19 >>
Time Temp. Humidity Pressure Rain* Wind** Luminosity Snow
1777815135 19.44° C 56% 1006.9 hPa 0 mm - - -
1777814595 19.44° C 58% 1006.7 hPa 0 mm - - -
1777814054 18.89° C 60% 1006.9 hPa 0 mm - - -
1777813515 18.33° C 61% 1006.9 hPa 0 mm - - -
1777812975 18.33° C 61% 1006.8 hPa 0 mm - - -
1777812434 18.33° C 62% 1007.1 hPa 0 mm - - -
1777811895 18.33° C 64% 1007.1 hPa 0 mm - - -
1777811355 18.33° C 64% 1006.9 hPa 0 mm - - -
1777810816 18.33° C 65% 1006.8 hPa 0 mm - - -
1777810274 17.78° C 64% 1007 hPa 0 mm - - -
1777809736 17.78° C 68% 1007 hPa 0 mm - - -
1777809194 17.22° C 72% 1007 hPa 0 mm - - -
1777808655 17.22° C 72% 1007 hPa 0 mm - - -
1777808114 17.22° C 72% 1006.9 hPa 0 mm - - -
1777807574 17.22° C 73% 1007 hPa 0 mm - - -
1777807035 16.67° C 74% 1007 hPa 0 mm - - -
1777806493 16.67° C 75% 1007.1 hPa 0 mm - - -
1777805955 17.22° C 76% 1007.1 hPa 0 mm - - -
1777805414 16.67° C 78% 1007.1 hPa 0.25 mm - - -
1777804874 16.67° C 77% 1007.3 hPa 0.51 mm - - -
1777804333 16.67° C 79% 1007 hPa 1.27 mm - - -
1777803795 16.11° C 80% 1007.1 hPa 2.29 mm - - -
1777803255 16.11° C 81% 1007 hPa 3.05 mm - - -
1777802714 16.11° C 83% 1006.9 hPa 3.3 mm - - -
1777802174 16.11° C 85% 1006.9 hPa 3.3 mm - - -

* Rain latest hour (hover to see other rain measurements)
** Current wind speed in m/s (hover to see current wind gust speed)